This demonstration page uses our WeatherBlox Daily Observations layout. Learn more.

Left ArrowRight Arrow

Hourly Observations for November 18, 2019

Temp ( °F °C ) Dew Point ( °F °C ) Humidity (%) Winds ( mph kmh ) Pressure ( in mb ) Visibility ( mi km ) Precip ( " mm )
12:53 am 00:53 Clear 56 13.3 40 4.4 55 55 Calm 29.98 1015 10 16 0.00 0.00
1:53 am 01:53 Clear 53 11.7 39 3.9 59 59 ESE 3 6 29.98 1015 10 16 0.00 0.00
2:53 am 02:53 Clear 51 10.6 40 4.4 66 66 SSE 3 6 30.00 1016 10 16 0.00 0.00
3:53 am 03:53 Clear 52 11.1 41 5 66 66 Calm 30.02 1017 10 16 0.00 0.00
4:53 am 04:53 Clear 51 10.6 41 5 69 69 N 7 11 30.04 1017 10 16 0.00 0.00
5:53 am 05:53 Clear 50 10 40 4.4 68 68 NE 5 7 30.03 1017 10 16 0.00 0.00
6:53 am 06:53 Clear 48 8.9 41 5 77 77 Calm 30.03 1017 10 16 0.00 0.00
7:53 am 07:53 Sunny 54 12.2 43 6.1 67 67 Calm 30.03 1017 10 16 0.00 0.00
8:53 am 08:53 Sunny 61 16.1 46 7.8 58 58 N 5 7 30.01 1016 10 16 0.00 0.00
9:53 am 09:53 Sunny 64 17.8 47 8.3 54 54 Calm 29.98 1015 10 16 0.00 0.00
10:53 am 10:53 Sunny 70 21.1 46 7.8 42 42 Calm 29.96 1015 10 16 0.00 0.00
11:53 am 11:53 Sunny 74 23.3 45 7.2 36 36 Calm 29.93 1013 10 16 0.00 0.00
12:53 pm 12:53 Sunny 76 24.4 45 7.2 33 33 S 5 7 29.89 1012 10 16 0.00 0.00
1:53 pm 13:53 Sunny 77 25 45 7.2 32 32 SSE 5 7 29.85 1011 10 16 0.00 0.00
2:53 pm 14:53 Sunny 77 25 42 5.6 29 29 WSW 3 6 29.82 1010 10 16 0.00 0.00
3:53 pm 15:53 Sunny 76 24.4 43 6.1 31 31 Calm 29.81 1009 10 16 0.00 0.00
4:53 pm 16:53 Clear 69 20.6 44 6.7 41 41 ESE 3 6 29.80 1009 10 16 0.00 0.00
5:53 pm 17:53 Clear 67 19.4 43 6.1 42 42 Calm 29.81 1010 10 16 0.00 0.00
6:53 pm 18:53 Clear 64 17.8 43 6.1 46 46 SSE 6 9 29.80 1009 10 16 0.00 0.00
7:53 pm 19:53 Clear 62 16.7 43 6.1 50 50 Calm 29.79 1009 10 16 0.00 0.00
8:53 pm 20:53 Clear 61 16.1 43 6.1 52 52 Calm 29.79 1009 10 16 0.00 0.00
9:53 pm 21:53 Clear 60 15.6 43 6.1 53 53 S 6 9 29.78 1009 10 16 0.00 0.00
10:53 pm 22:53 Mostly Clear 58 14.4 43 6.1 58 58 E 5 7 29.77 1008 10 16 0.00 0.00
11:53 pm 23:53 Mostly Cloudy 59 15 44 6.7 58 58 NE 3 6 29.77 1008 10 16 0.00 0.00

Powered by AerisWeather